#timestamp,LO_Frequency,Hit,StdDev 
1582416015.9,286047000.9,N
1582416035.7,286047002.0,N
1582416055.5,286047001.8,N
1582416075.4,286047001.3,N
1582416095.2,286047002.2,N
1582416115.1,286047000.3,N
1582416116.0,286047000.3,N
1582416135.8,286047002.6,N
1582416155.6,286047003.2,N
1582416175.5,286047002.3,N
1582416195.3,286047002.5,N
1582416215.2,286047005.6,N
1582416235.9,286047005.2,N
1582416255.7,286047003.2,N
1582416275.6,286047004.7,N
1582416295.4,286047007.1,N
1582416315.2,286047004.8,N
1582416335.1,286047002.9,N
1582416336.0,286047002.9,N
1582416355.8,286047001.3,N
1582416375.7,286047000.2,N
1582416395.5,286047007.4,Y
1582416415.3,286047005.6,P
1582416435.2,286047004.2,N
1582416455.0,286047003.5,N
1582416455.9,286047003.5,N
1582416475.8,286047011.3,Y
1582416495.6,286047008.3,P
1582416515.4,286047006.9,P
1582416535.3,286047008.6,P
1582416555.1,286047010.4,Y
1582416575.9,286047000.7,P
1582416595.7,286046999.1,N
1582416615.5,286046994.5,N
1582416635.4,286046992.2,N
1582416655.2,286046992.7,N
1582416675.1,286046992.5,N
1582416676.0,286046992.5,N
1582416695.8,286046992.8,N
1582416715.7,286046994.4,N
1582416735.5,286046992.7,N
1582416755.3,286046992.8,N
1582416775.2,286046990.7,N
1582416795.0,286046987.3,N
1582416795.9,286046987.3,N
1582416815.8,286046985.4,Y
1582416835.6,286046993.9,P
1582416855.5,286046994.4,P
1582416875.3,286046994.0,P
1582416895.1,286046995.7,Y
1582416915.9,286047003.9,P
1582416935.7,286047001.7,N
1582416955.6,286047002.0,N
1582416975.4,286047004.2,N
1582416995.2,286047003.3,N
1582417015.1,286047001.7,N
1582417016.0,286047001.7,N
1582417035.8,286047001.4,N
1582417055.7,286047002.7,N
1582417075.5,286047000.6,N
1582417095.3,286047002.4,N
1582417115.2,286047002.2,N
1582417135.0,286047002.2,N
1582417135.9,286047002.2,N
1582417155.7,286047000.0,N
1582417175.6,286047001.9,N
1582417195.4,286047003.8,N
1582417215.3,286047003.6,N
1582417235.1,286047003.8,N
1582417236.0,286047003.8,N
1582417255.8,286047006.0,N
1582417275.7,286047004.7,N
1582417295.5,286047003.8,N
1582417315.4,286047002.2,N
1582417335.2,286047001.5,N
1582417355.0,286047003.6,N
1582417355.9,286047003.6,N
1582417375.8,286047005.5,N
1582417395.6,286047007.0,Y
1582417415.4,286047003.0,P
1582417435.3,286047005.8,P
1582417455.1,286047003.9,N
1582417475.9,286047001.6,N
1582417495.7,286047003.1,N
1582417515.5,286047003.5,N
1582417535.4,286047002.1,N
1582417555.2,286047001.9,N
1582417575.1,286047002.8,N
1582417576.0,286047002.8,N
1582417595.8,286047002.6,N
1582417615.6,286047004.4,Y
1582417635.5,286047001.9,P
1582417655.3,286047001.5,N
1582417675.2,286046998.6,N
1582417695.9,286047002.2,N
1582417715.7,286047003.3,N
1582417735.6,286047002.7,N
1582417755.4,286046999.8,N
1582417775.2,286046999.8,N
1582417795.1,286047000.0,N
1582417796.0,286047000.0,N
1582417815.8,286047000.2,N
1582417835.7,286046999.2,N
1582417855.5,286046999.3,N
1582417875.3,286046998.7,N
1582417895.2,286046999.1,N
1582417915.0,286046997.5,N
1582417915.9,286046997.5,N
1582417935.8,286046998.4,N
1582417955.6,286046998.1,N
1582417975.4,286046998.5,N
1582417995.3,286046999.3,N
1582418015.1,286047002.1,N
1582418035.8,286047002.2,N
1582418055.7,286047004.6,N
1582418075.5,286047008.4,Y
1582418095.4,286047005.5,P
1582418115.2,286047000.0,N
1582418135.0,286046996.7,N
1582418135.9,286046996.7,N
1582418155.8,286046998.0,N
1582418175.6,286046997.6,N
1582418195.5,286046999.0,N
1582418215.3,286046998.4,N
1582418235.1,286047000.3,N
1582418255.9,286047001.4,N
1582418275.7,286047001.0,N
1582418295.6,286047001.8,N
1582418315.4,286047000.3,N
1582418335.2,286046998.8,N
1582418355.1,286046998.1,N
1582418356.0,286046998.1,N
1582418375.8,286047000.7,N
1582418395.7,286046999.2,N
1582418415.5,286046996.7,N
1582418435.3,286046999.4,N
1582418455.2,286047000.5,N
1582418475.0,286047002.6,N
1582418475.9,286047002.6,N
1582418495.7,286047002.8,N
1582418515.6,286047000.5,N
1582418535.4,286046998.3,N
1582418555.3,286046997.3,N
1582418575.1,286046995.9,N
1582418576.0,286046995.9,N
1582418595.8,286046995.2,N
1582418615.7,286046995.5,N
1582418635.5,286046995.6,N
1582418655.4,286046995.1,N
1582418675.2,286046996.6,N
1582418695.0,286046997.5,N
1582418695.9,286046997.5,N
1582418715.8,286046998.0,N
1582418735.6,286046997.3,N
1582418755.4,286047000.6,N
1582418775.3,286047006.4,N
1582418795.1,286047006.9,N
1582418815.9,286047004.2,N
1582418835.7,286047006.6,N
1582418855.5,286047006.4,N
1582418875.4,286047002.0,N
1582418895.2,286047001.2,N
1582418915.0,286046997.7,N
1582418916.0,286046997.7,N
1582418935.8,286046996.5,N
1582418955.6,286046997.3,N
1582418975.5,286046995.4,N
1582418995.3,286046994.6,N
1582419015.1,286046994.5,N
1582419035.9,286046992.4,N
1582419055.7,286046994.8,N
1582419075.6,286046995.7,N
1582419095.4,286046998.8,N
1582419115.2,286046998.3,N
1582419135.1,286047001.2,N
1582419136.0,286047001.2,N
1582419155.8,286047001.1,N
1582419175.7,286046999.3,N
1582419195.5,286046997.9,N
1582419215.3,286047000.3,N
1582419235.2,286046999.8,N
1582419255.0,286046998.1,N
1582419255.9,286046998.1,N
1582419275.7,286046996.7,N
1582419295.6,286046995.0,N
1582419315.4,286046997.5,N
1582419335.3,286046995.3,N
1582419355.1,286046996.0,N
1582419375.8,286046994.6,N
1582419395.7,286046992.0,N
1582419415.5,286046991.9,Y
1582419435.4,286046995.7,P
1582419455.2,286046995.3,P
1582419475.0,286046995.5,P
1582419475.9,286046995.5,Y
1582419495.8,286047001.4,P
1582419515.6,286047001.4,N
1582419535.5,286047003.6,N
1582419555.3,286047003.6,N
1582419575.1,286047003.0,N
1582419595.9,286047001.7,N
